• In Czech Republic
  • List of Countries
  • For 7 days
  • Water Temperature
  • Satellite Maps
  • Weather Map
  • Weather Widgets
  • user-avatar
    Login

    Hourly Weather Stepanakert

    Today, 22 June, Thursday

    Time Temperature Precipitation Wind Pressure Humidity
    00:00 +18°C° 0.3 mm 2 mps 688 mmHg 89%
    01:00 +17°C° 0.7 mm 2 mps 688 mmHg 90%
    02:00 +18°C° 0.7 mm 1 mps 688 mmHg 90%
    03:00 +17°C° 0 mm 2 mps 688 mmHg 90%
    04:00 +18°C° 1.1 mm 1 mps 688 mmHg 90%
    05:00 +18°C° 1.1 mm 1 mps 688 mmHg 89%
    06:00 +19°C° 1.1 mm 1 mps 689 mmHg 89%
    07:00 +19°C° 1.1 mm 1 mps 689 mmHg 86%
    08:00 +19°C° 1.1 mm 2 mps 689 mmHg 84%
    09:00 +19°C° 0 mm 2 mps 689 mmHg 81%
    10:00 +19°C° 0.9 mm 2 mps 689 mmHg 81%
    11:00 +19°C° 0.9 mm 2 mps 689 mmHg 82%
    12:00 +19°C° 0.9 mm 3 mps 689 mmHg 82%
    13:00 +20°C° 0.7 mm 2 mps 689 mmHg 78%
    14:00 +20°C° 0.7 mm 2 mps 689 mmHg 74%
    15:00 +20°C° 0 mm 2 mps 689 mmHg 72%
    16:00 +20°C° 0.7 mm 2 mps 689 mmHg 72%
    17:00 +21°C° 0.7 mm 1 mps 690 mmHg 72%
    18:00 +21°C° 0.7 mm 1 mps 690 mmHg 72%
    19:00 +20°C° 0.5 mm 1 mps 690 mmHg 77%
    20:00 +18°C° 0.5 mm 1 mps 690 mmHg 82%
    21:00 +15°C° 0.5 mm 0 mps 690 mmHg 88%
    22:00 +15°C° 0.1 mm 0 mps 690 mmHg 88%
    23:00 +15°C° 0.1 mm 1 mps 691 mmHg 88%

    Tomorrow, 23 June, Friday

    Time Temperature Precipitation Wind Pressure Humidity
    00:00 +15°C° 0.1 mm 1 mps 691 mmHg 89%
    01:00 +14°C° 0 mm 1 mps 691 mmHg 89%
    02:00 +14°C° 0 mm 1 mps 691 mmHg 88%
    03:00 +14°C° 0 mm 1 mps 691 mmHg 88%
    04:00 +15°C° 0 mm 1 mps 692 mmHg 84%
    05:00 +18°C° 0 mm 1 mps 692 mmHg 79%
    06:00 +19°C° 0 mm 1 mps 693 mmHg 74%
    07:00 +21°C° 0 mm 1 mps 693 mmHg 68%
    08:00 +21°C° 0 mm 2 mps 693 mmHg 61%
    09:00 +24°C° 0 mm 2 mps 693 mmHg 54%
    10:00 +24°C° 0.2 mm 2 mps 693 mmHg 52%
    11:00 +25°C° 0.2 mm 2 mps 693 mmHg 50%
    12:00 +26°C° 0.2 mm 2 mps 693 mmHg 48%
    13:00 +26°C° 0.4 mm 2 mps 693 mmHg 48%
    14:00 +27°C° 0.4 mm 2 mps 693 mmHg 47%
    15:00 +27°C° 0.4 mm 2 mps 692 mmHg 46%
    16:00 +27°C° 0.4 mm 2 mps 692 mmHg 47%
    17:00 +26°C° 0.4 mm 2 mps 692 mmHg 49%
    18:00 +26°C° 0.4 mm 2 mps 692 mmHg 51%
    19:00 +23°C° 0.1 mm 2 mps 692 mmHg 58%
    20:00 +20°C° 0.1 mm 2 mps 692 mmHg 66%
    21:00 +18°C° 0.1 mm 1 mps 692 mmHg 73%
    22:00 +18°C° 0 mm 1 mps 692 mmHg 75%
    23:00 +16°C° 0 mm 1 mps 693 mmHg 77%

    Day after tomorrow, 24 June, Saturday

    Time Temperature Precipitation Wind Pressure Humidity
    00:00 +15°C° 0 mm 1 mps 693 mmHg 79%
    01:00 +15°C° 0 mm 1 mps 693 mmHg 80%
    02:00 +15°C° 0 mm 1 mps 693 mmHg 80%
    03:00 +14°C° 0 mm 1 mps 693 mmHg 81%
    04:00 +16°C° 0 mm 1 mps 693 mmHg 78%
    05:00 +18°C° 0 mm 1 mps 693 mmHg 74%
    06:00 +20°C° 0 mm 1 mps 694 mmHg 71%
    07:00 +21°C° 0 mm 1 mps 694 mmHg 65%
    08:00 +23°C° 0 mm 1 mps 694 mmHg 58%
    09:00 +24°C° 0 mm 1 mps 694 mmHg 52%
    10:00 +25°C° 0 mm 2 mps 694 mmHg 49%
    11:00 +27°C° 0 mm 2 mps 693 mmHg 45%
    12:00 +28°C° 0 mm 2 mps 693 mmHg 42%
    13:00 +28°C° 0 mm 2 mps 692 mmHg 42%
    14:00 +29°C° 0 mm 2 mps 692 mmHg 41%
    15:00 +29°C° 0 mm 2 mps 691 mmHg 40%
    16:00 +28°C° 0 mm 2 mps 691 mmHg 42%
    17:00 +28°C° 0 mm 2 mps 691 mmHg 45%
    18:00 +27°C° 0 mm 1 mps 691 mmHg 47%
    19:00 +25°C° 0 mm 1 mps 691 mmHg 55%
    20:00 +22°C° 0 mm 1 mps 691 mmHg 62%
    21:00 +19°C° 0 mm 1 mps 691 mmHg 70%
    22:00 +19°C° 0 mm 1 mps 691 mmHg 70%
    23:00 +19°C° 0 mm 1 mps 691 mmHg 69%

    25 June, Sunday

    Time Temperature Precipitation Wind Pressure Humidity
    00:00 +19°C° 0 mm 1 mps 691 mmHg 69%
    01:00 +18°C° 0 mm 1 mps 691 mmHg 71%
    02:00 +18°C° 0 mm 1 mps 691 mmHg 72%
    03:00 +16°C° 0 mm 1 mps 690 mmHg 74%
    04:00 +19°C° 0 mm 1 mps 691 mmHg 70%
    05:00 +20°C° 0 mm 1 mps 691 mmHg 67%
    06:00 +22°C° 0 mm 1 mps 692 mmHg 64%
    07:00 +24°C° 0 mm 1 mps 692 mmHg 57%
    08:00 +26°C° 0 mm 2 mps 692 mmHg 51%
    09:00 +28°C° 0 mm 2 mps 692 mmHg 44%
    10:00 +28°C° 0.1 mm 2 mps 692 mmHg 42%
    11:00 +29°C° 0.1 mm 3 mps 692 mmHg 40%
    12:00 +30°C° 0.1 mm 3 mps 692 mmHg 39%
    13:00 +31°C° 0.4 mm 3 mps 692 mmHg 39%
    14:00 +31°C° 0.4 mm 3 mps 691 mmHg 39%
    15:00 +31°C° 0.4 mm 3 mps 691 mmHg 39%
    16:00 +30°C° 0.2 mm 2 mps 692 mmHg 41%
    17:00 +30°C° 0.2 mm 2 mps 692 mmHg 43%
    18:00 +29°C° 0.2 mm 2 mps 692 mmHg 45%
    19:00 +27°C° 0 mm 2 mps 692 mmHg 51%
    20:00 +24°C° 0 mm 2 mps 693 mmHg 57%
    21:00 +21°C° 0 mm 2 mps 693 mmHg 64%
    22:00 +20°C° 0 mm 2 mps 693 mmHg 66%
    23:00 +20°C° 0 mm 2 mps 693 mmHg 67%

    26 June, Monday

    Time Temperature Precipitation Wind Pressure Humidity
    00:00 +19°C° 0 mm 2 mps 693 mmHg 69%
    01:00 +18°C° 0 mm 2 mps 693 mmHg 71%
    02:00 +19°C° 0 mm 1 mps 693 mmHg 72%
    03:00 +18°C° 0 mm 1 mps 693 mmHg 73%
    04:00 +19°C° 0 mm 1 mps 694 mmHg 70%
    05:00 +21°C° 0 mm 1 mps 694 mmHg 68%
    06:00 +21°C° 0 mm 2 mps 695 mmHg 65%
    07:00 +23°C° 0 mm 2 mps 695 mmHg 59%
    08:00 +25°C° 0 mm 3 mps 695 mmHg 52%
    09:00 +26°C° 0 mm 3 mps 696 mmHg 46%
    10:00 +27°C° 0 mm 4 mps 695 mmHg 44%
    11:00 +28°C° 0 mm 4 mps 695 mmHg 42%
    12:00 +29°C° 0 mm 4 mps 695 mmHg 39%
    13:00 +30°C° 0 mm 4 mps 695 mmHg 40%
    14:00 +30°C° 0 mm 4 mps 694 mmHg 40%
    15:00 +30°C° 0 mm 4 mps 694 mmHg 40%
    16:00 +29°C° 0 mm 4 mps 694 mmHg 43%
    17:00 +28°C° 0 mm 3 mps 694 mmHg 47%
    18:00 +27°C° 0 mm 3 mps 694 mmHg 50%
    19:00 +25°C° 0 mm 3 mps 694 mmHg 57%
    20:00 +21°C° 0 mm 2 mps 694 mmHg 65%
    21:00 +20°C° 0 mm 1 mps 694 mmHg 72%
    22:00 +20°C° 0 mm 1 mps 694 mmHg 73%
    23:00 +19°C° 0 mm 1 mps 694 mmHg 74%

    27 June, Tuesday

    Time Temperature Precipitation Wind Pressure Humidity
    00:00 +19°C° 0 mm 1 mps 694 mmHg 75%
    01:00 +19°C° 0 mm 1 mps 694 mmHg 76%
    02:00 +18°C° 0 mm 1 mps 694 mmHg 77%
    03:00 +16°C° 0 mm 1 mps 693 mmHg 79%
    04:00 +19°C° 0 mm 1 mps 694 mmHg 74%
    05:00 +20°C° 0 mm 1 mps 694 mmHg 70%
    06:00 +20°C° 0 mm 0 mps 695 mmHg 66%
    07:00 +24°C° 0 mm 1 mps 695 mmHg 58%
    08:00 +25°C° 0 mm 1 mps 695 mmHg 51%
    09:00 +27°C° 0 mm 2 mps 695 mmHg 43%
    10:00 +28°C° 0 mm 2 mps 695 mmHg 41%
    11:00 +30°C° 0 mm 2 mps 695 mmHg 38%
    12:00 +31°C° 0 mm 3 mps 694 mmHg 35%
    13:00 +31°C° 0 mm 3 mps 694 mmHg 35%
    14:00 +31°C° 0 mm 3 mps 694 mmHg 35%
    15:00 +33°C° 0 mm 3 mps 693 mmHg 35%
    16:00 +31°C° 0 mm 3 mps 693 mmHg 37%
    17:00 +30°C° 0 mm 3 mps 693 mmHg 40%
    18:00 +29°C° 0 mm 3 mps 693 mmHg 42%
    19:00 +27°C° 0 mm 2 mps 693 mmHg 49%
    20:00 +24°C° 0 mm 2 mps 693 mmHg 56%
    21:00 +21°C° 0 mm 1 mps 693 mmHg 63%
    22:00 +21°C° 0 mm 1 mps 693 mmHg 63%
    23:00 +20°C° 0 mm 1 mps 693 mmHg 63%
    Show more